[[{"header":{"parameterUnit":"m.s-1","parameterCategory":2,"la1":30.2991,"la2":30.254,"lo1":-89.0895,"lo2":-89.0444,"dy":0.0017,"dx":0.0017,"nx":28,"ny":28,"refTime":"2024-07-20T03:00:00:Z","depth":"0","parameterNumber":2,"parameterNumberName":"U-component_of_CURRENTS"},"data":[0,0,0,0,0,0,0,0,0,0,0,0,0,0,0,0,0,0,0,0,0,0,0,0,0,0,0,0,0,0,0,0,0,0,0,0,0,0,0,0,0,0,0,0,0,0,0,0,0,0,0,0,0,0,0,0,0,0,-0.2443,-0.2444,0,-0.2476,-0.2476,-0.2476,-0.2475,-0.2475,-0.2475,-0.2475,-0.2607,-0.2611,-0.2614,0,0,0,0,0,0,0,0,0,0,0,0,0,-0.2361,-0.2362,-0.2443,-0.2444,-0.2445,-0.2476,-0.2476,-0.2476,-0.2475,-0.2475,-0.2475,-0.2475,-0.2606,-0.261,-0.2615,0,0,0,0,0,0,0,0,0,0,0,0,0,-0.2393,-0.2363,-0.2443,-0.245,-0.2451,-0.2476,-0.2476,-0.2477,-0.2475,-0.2475,-0.2475,-0.2474,-0.2604,-0.261,-0.2615,-0.2656,0,0,-0.2632,-0.2635,0,0,0,0,0,0,0,0,-0.2391,-0.2396,-0.2448,-0.2449,-0.2451,-0.2474,-0.2496,-0.2543,-0.2475,-0.2463,-0.2475,-0.2474,-0.2574,-0.2582,-0.2583,-0.2662,-0.2668,-0.2633,-0.2636,-0.2639,-0.264,0,0,0,0,0,0,0,-0.2389,-0.2394,-0.2454,-0.2449,-0.2451,-0.2445,-0.2449,-0.2504,-0.252,-0.2464,-0.2465,-0.2473,-0.2575,-0.2578,-0.2587,-0.267,-0.2633,-0.2638,-0.2641,-0.2643,-0.2691,-0.2689,0,0,0,0,0,0,-0.2392,-0.2392,-0.2453,-0.2455,-0.2422,-0.2447,-0.2451,-0.2464,-0.2517,-0.2525,-0.2473,-0.2473,-0.2568,-0.258,-0.2592,-0.261,-0.2639,-0.2644,-0.2647,-0.2693,-0.2691,-0.2688,0,0,0,0,0,0,-0.239,-0.2397,-0.2451,-0.2426,-0.2433,-0.2449,-0.2463,-0.2465,-0.247,-0.2523,-0.2532,-0.2476,-0.2569,-0.2584,-0.2609,-0.2617,-0.2646,-0.2652,-0.2696,-0.2692,-0.2689,-0.2669,0,0,0,0,0,0,-0.2388,-0.2396,-0.2402,-0.2426,-0.2434,-0.2467,-0.2464,-0.2466,-0.2476,-0.2476,-0.2529,-0.254,-0.257,-0.26,-0.2614,-0.2625,-0.2656,-0.2698,-0.2694,-0.269,-0.2672,-0.2666,-0.266,0,0,0,0,0,-0.2385,-0.2395,-0.2402,-0.2409,-0.2443,-0.2468,-0.2471,-0.2479,-0.2477,-0.2481,-0.249,-0.2539,-0.2584,-0.2603,-0.262,-0.2633,-0.27,-0.2695,-0.2691,-0.2675,-0.2667,-0.266,0,0,0,0,0,0,-0.2359,-0.2397,-0.2405,-0.2426,-0.2446,-0.2468,-0.2471,-0.2481,-0.2491,-0.2488,-0.2529,-0.2541,-0.2558,-0.2588,-0.2607,-0.2624,-0.2645,-0.2643,-0.2627,-0.262,-0.2614,-0.2628,-0.2661,0,0,0,0,0,-0.2358,-0.2373,-0.2409,-0.242,-0.2433,-0.2452,-0.2461,-0.247,-0.2486,-0.249,-0.252,-0.2538,-0.2552,-0.2579,-0.2595,-0.263,-0.2631,-0.2638,-0.2631,-0.2627,-0.2643,-0.2628,-0.2623,-0.2673,-0.2673,-0.2673,0,0,-0.2351,-0.2371,-0.238,-0.2415,-0.2428,-0.2455,-0.2455,-0.2471,-0.2487,-0.2508,-0.2526,-0.2525,-0.2549,-0.2562,-0.2574,-0.2596,-0.2603,-0.2621,-0.2617,-0.2636,-0.2622,-0.2618,-0.2614,-0.267,-0.267,-0.2671,0,0,-0.2347,-0.2362,-0.2379,-0.24,-0.2428,-0.2447,-0.2454,-0.2479,-0.2481,-0.2501,-0.2496,-0.2491,-0.2539,-0.2542,-0.2554,-0.2527,-0.256,-0.2528,-0.2537,-0.2521,-0.2518,-0.2515,-0.2479,-0.2473,-0.2539,-0.2539,-0.2539,0,-0.2337,-0.2368,-0.2385,-0.241,-0.2431,-0.2447,-0.2476,-0.2484,-0.2508,-0.2509,-0.2504,-0.2509,-0.2529,-0.2538,-0.2515,-0.2521,-0.2507,-0.2573,-0.2517,-0.2514,-0.2512,-0.2476,-0.247,-0.2537,-0.2538,-0.2538,-0.2538,0,-0.2353,-0.2379,-0.2388,-0.243,-0.2454,-0.2475,-0.2504,-0.251,-0.2514,-0.252,-0.2513,-0.2508,-0.2517,-0.2506,-0.2514,-0.2503,-0.2493,-0.2502,-0.2547,-0.2507,-0.2469,-0.2464,-0.2535,-0.2536,-0.2536,-0.2537,0,0,-0.2319,-0.2391,-0.2389,-0.2417,-0.2468,-0.2486,-0.2513,-0.254,-0.2546,-0.2542,-0.2544,-0.2533,-0.2518,-0.2526,-0.2518,-0.2504,-0.246,-0.2502,-0.2502,-0.2485,-0.2407,-0.2281,-0.2263,-0.2464,-0.2464,-0.2463,-0.2376,0,-0.2324,-0.2375,-0.2415,-0.2459,-0.249,-0.2522,-0.2546,-0.2565,-0.257,-0.2569,-0.2548,-0.2544,-0.2532,-0.2525,-0.2508,-0.2481,-0.245,-0.2482,-0.2433,-0.2431,-0.2341,-0.2254,-0.2121,-0.2023,-0.2371,-0.237,-0.237,0,-0.2319,-0.2357,-0.2409,-0.2477,-0.2493,-0.2521,-0.2554,-0.2583,-0.2589,-0.2589,-0.2579,-0.2565,-0.2547,-0.2532,-0.2476,-0.2499,-0.2451,-0.2418,-0.2415,-0.231,-0.2295,-0.2123,-0.2,-0.1994,-0.2362,-0.2362,-0.2363,0,-0.2264,-0.2346,-0.2387,-0.241,-0.2491,-0.2509,-0.2548,-0.2573,-0.2593,-0.2597,-0.26,-0.2578,-0.2559,-0.2516,-0.2444,-0.2468,-0.2359,-0.2389,-0.2222,-0.2213,-0.2097,-0.2077,-0.1983,-0.2329,-0.233,-0.233,-0.233,0,-0.2242,-0.2264,-0.2362,-0.2374,-0.2414,-0.2482,-0.2511,-0.254,-0.2579,-0.2576,-0.2603,-0.2568,-0.2554,-0.249,-0.2436,-0.2291,-0.2351,-0.2201,-0.2175,-0.2077,-0.2058,-0.2047,-0.2097,-0.2327,-0.2327,-0.2328,-0.2328,0,-0.2149,-0.2224,-0.2262,-0.2352,-0.2385,-0.24,-0.2495,-0.2509,-0.2563,-0.2559,-0.2562,-0.2561,-0.2459,-0.241,-0.2316,-0.2257,-0.2099,-0.208,-0.1948,-0.1907,-0.1753,-0.1806,-0.1719,-0.1674,-0.1897,-0.1893,-0.189,0,-0.2102,-0.2116,-0.2214,-0.2235,-0.2271,-0.2327,-0.2365,-0.247,-0.2498,-0.2517,-0.2503,-0.2429,-0.2272,-0.21,-0.2009,-0.1865,-0.1916,-0.1694,-0.1713,-0.1696,-0.1739,-0.181,-0.1785,-0.1545,-0.1539,-0.1535,-0.1531,0,-0.1985,-0.202,-0.2047,-0.2105,-0.2153,-0.2204,-0.2273,-0.2275,-0.2366,-0.2316,-0.2186,-0.2049,-0.1939,-0.1705,-0.1594,-0.1521,-0.1656,-0.1591,-0.1616,-0.1475,-0.1506,-0.1465,-0.1656,-0.1489,-0.1493,-0.1496,-0.1499,-0.15,-0.1867,-0.1861,-0.1905,-0.1938,-0.1999,-0.1994,-0.1932,-0.1975,-0.1896,-0.1729,-0.1769,-0.1447,-0.1471,-0.1258,-0.1219,-0.1181,-0.1305,-0.1156,-0.1226,-0.1303,-0.124,-0.1316,-0.1098,-0.11,-0.1102,-0.1103,-0.1104,0,-0.1707,-0.1716,-0.1739,-0.1762,-0.1743,-0.1831,-0.1807,-0.1678,-0.1443,-0.1304,-0.1073,-0.0801,-0.0719,-0.0812,-0.0885,-0.0848,-0.0884,-0.0863,-0.0958,-0.0954,-0.103,-0.0993,-0.069,-0.069,-0.069,-0.069,-0.069,-0.069,-0.1621,-0.1573,-0.1587,-0.1486,-0.1494,-0.1342,-0.1243,-0.1053,-0.0892,-0.0453,-0.0188,-0.0074,-0.0323,-0.067,-0.0779,-0.0746,-0.08,-0.0744,-0.0839,-0.0926,-0.0961,-0.0995,-0.0969,-0.0667,-0.0667,-0.0698,-0.0699,-0.0699]},{"header":{"parameterUnit":"m.s-1","parameterCategory":2,"la1":30.2991,"la2":30.254,"lo1":-89.0895,"lo2":-89.0444,"dy":0.0017,"dx":0.0017,"nx":28,"ny":28,"refTime":"2024-07-20T03:00:00:Z","depth":"0","parameterNumber":3,"parameterNumberName":"V-component_of_CURRENTS"},"data":[0,0,0,0,0,0,0,0,0,0,0,0,0,0,0,0,0,0,0,0,0,0,0,0,0,0,0,0,0,0,0,0,0,0,0,0,0,0,0,0,0,0,0,0,0,0,0,0,0,0,0,0,0,0,0,0,0,0,-0.0338,-0.0338,0,-0.0269,-0.0268,-0.0267,-0.0208,-0.0208,-0.0207,-0.0207,0.0038,0.0043,0.0049,0,0,0,0,0,0,0,0,0,0,0,0,0,-0.0376,-0.0376,-0.0339,-0.0338,-0.0337,-0.0269,-0.0268,-0.0267,-0.0208,-0.0208,-0.0207,-0.0206,0.0036,0.0043,0.005,0,0,0,0,0,0,0,0,0,0,0,0,0,-0.0338,-0.0375,-0.0339,-0.03,-0.0296,-0.027,-0.0268,-0.0267,-0.0209,-0.0208,-0.0207,-0.0206,0.0033,0.0042,0.0051,0.0088,0,0,0.0078,0.0082,0,0,0,0,0,0,0,0,-0.034,-0.0336,-0.0307,-0.0303,-0.0298,-0.0247,-0.0192,-0.014,-0.0209,-0.0241,-0.0207,-0.0206,-0.0043,-0.0027,-0.0018,0.01,0.011,0.0079,0.0084,0.0088,0.0091,0,0,0,0,0,0,0,-0.0343,-0.0339,-0.031,-0.0306,-0.0301,-0.0271,-0.0265,-0.0182,-0.0144,-0.0238,-0.0234,-0.0228,-0.0039,-0.0027,-0.0011,0.0114,0.0079,0.0087,0.0092,0.0096,0.0262,0.0261,0,0,0,0,0,0,-0.0356,-0.0342,-0.0312,-0.0308,-0.0318,-0.0271,-0.0264,-0.0264,-0.0148,-0.0131,-0.0228,-0.0225,-0.0042,-0.0022,-0.0002,0.0038,0.0088,0.0096,0.0102,0.0263,0.0262,0.0261,0,0,0,0,0,0,-0.0357,-0.0355,-0.0315,-0.0323,-0.0316,-0.0272,-0.0271,-0.0263,-0.0249,-0.0143,-0.0122,-0.0223,-0.0041,-0.0014,0.0042,0.0049,0.01,0.0109,0.0264,0.0262,0.0261,0.0126,0,0,0,0,0,0,-0.0359,-0.0356,-0.0362,-0.0325,-0.0317,-0.0306,-0.0272,-0.0262,-0.0247,-0.0242,-0.0131,-0.0108,-0.0038,0.0028,0.0051,0.0062,0.0116,0.0265,0.0263,0.0262,0.0131,0.012,0.011,0,0,0,0,0,-0.0361,-0.0376,-0.0363,-0.036,-0.0327,-0.0307,-0.03,-0.0264,-0.0248,-0.0248,-0.0193,-0.0112,0.0034,0.0033,0.0061,0.0075,0.0266,0.0264,0.0262,0.0136,0.0122,0.011,0,0,0,0,0,0,-0.0398,-0.0371,-0.0356,-0.0363,-0.0339,-0.0297,-0.0296,-0.0272,-0.0231,-0.0224,-0.0127,-0.0101,-0.0051,0.0025,0.0022,0.0115,0.0166,0.0169,0.0061,0.0049,0.0039,0.0031,0.0123,0,0,0,0,0,-0.041,-0.0414,-0.038,-0.0387,-0.0378,-0.0339,-0.0327,-0.0304,-0.0263,-0.0245,-0.0173,-0.0097,-0.0039,0.0012,0.0075,0.0134,0.02,0.0161,0.015,0.014,0.0151,0.0215,0.021,0.0254,0.0254,0.0254,0,0,-0.0426,-0.0413,-0.0414,-0.0395,-0.0374,-0.0374,-0.033,-0.0319,-0.0314,-0.022,-0.0191,-0.0134,-0.0038,0.0007,0.0041,0.0078,0.0161,0.0138,0.0129,0.0146,0.0212,0.0208,0.0204,0.0252,0.0252,0.0253,0,0,-0.0467,-0.0449,-0.0468,-0.0454,-0.0431,-0.0404,-0.0405,-0.0366,-0.0343,-0.0313,-0.0256,-0.0206,-0.01,-0.0043,0.0003,-0.0022,0.0088,0.0007,-0.0029,0.003,0.0027,0.0026,0.0091,0.0097,0.0018,0.0018,0.0018,0,-0.0489,-0.0508,-0.047,-0.0485,-0.0486,-0.0423,-0.0447,-0.0411,-0.036,-0.0342,-0.0316,-0.0201,-0.0123,-0.0067,-0.0082,-0.0042,0.0009,0.0008,0.0015,0.0015,0.0016,0.0084,0.0092,0.0011,0.0012,0.0013,0.0013,0,-0.0543,-0.0558,-0.0569,-0.0567,-0.0559,-0.0568,-0.0521,-0.0499,-0.0461,-0.0421,-0.0368,-0.0285,-0.0211,-0.0182,-0.0133,-0.009,-0.005,-0.0023,0.0044,0.0003,0.0078,0.0088,0.0001,0.0004,0.0006,0.0008,0,0,-0.0597,-0.0608,-0.0612,-0.0638,-0.0609,-0.0616,-0.0595,-0.0565,-0.0548,-0.0485,-0.0459,-0.0374,-0.0323,-0.0269,-0.0202,-0.0138,-0.0098,-0.0081,-0.0074,-0.0022,0.004,0.0116,0.0136,-0.0073,-0.0072,-0.0071,0.0085,0,-0.0655,-0.0717,-0.0697,-0.0751,-0.078,-0.0724,-0.0711,-0.0669,-0.0608,-0.0558,-0.0462,-0.0406,-0.0356,-0.0319,-0.0259,-0.013,-0.0074,-0.0141,0.0079,0.0086,0.0154,0.0149,0.0194,0.034,0.0096,0.0098,0.0099,0,-0.0717,-0.0754,-0.0823,-0.0854,-0.086,-0.0873,-0.0847,-0.0829,-0.0725,-0.0672,-0.0596,-0.0501,-0.0398,-0.0355,-0.0166,-0.0212,-0.0103,-0.0005,0.0004,0.0137,0.0183,0.0346,0.037,0.0487,0.0116,0.0115,0.0114,0,-0.0791,-0.0845,-0.0911,-0.0923,-0.0932,-0.0949,-0.0948,-0.0869,-0.083,-0.0739,-0.0672,-0.0561,-0.0459,-0.0336,-0.0119,-0.0145,0.0105,0.0095,0.0263,0.027,0.0387,0.0402,0.055,0.0214,0.0214,0.0213,0.0213,0,-0.0865,-0.0917,-0.0957,-0.0994,-0.1057,-0.1041,-0.1058,-0.1021,-0.0929,-0.0834,-0.0743,-0.0609,-0.0444,-0.0262,-0.0125,0.0125,0.0102,0.027,0.032,0.034,0.0348,0.0521,0.0556,0.0219,0.0218,0.0217,0.0216,0,-0.0925,-0.095,-0.1028,-0.1074,-0.1093,-0.1141,-0.1129,-0.1111,-0.1022,-0.0887,-0.0845,-0.0626,-0.0378,-0.0199,0.0056,0.0159,0.0458,0.0447,0.0465,0.0514,0.0745,0.077,0.0991,0.1102,0.0634,0.0637,0.064,0,-0.0962,-0.1008,-0.1092,-0.1135,-0.1162,-0.1216,-0.1222,-0.1168,-0.1092,-0.0845,-0.075,-0.0497,-0.0234,0.0127,0.0324,0.056,0.0634,0.0725,0.0676,0.0783,0.0848,0.0848,0.0924,0.0774,0.0778,0.078,0.0783,0,-0.1018,-0.1042,-0.1101,-0.1194,-0.124,-0.1267,-0.1249,-0.1167,-0.1012,-0.083,-0.049,-0.0267,0.0067,0.0382,0.0623,0.0751,0.0822,0.0789,0.0901,0.0979,0.0991,0.1113,0.0644,0.0807,0.0804,0.0803,0.0801,0.08,-0.104,-0.1095,-0.1163,-0.1243,-0.1288,-0.1246,-0.1164,-0.104,-0.083,-0.0428,-0.0253,0.0163,0.0467,0.0828,0.0951,0.1131,0.1072,0.1184,0.121,0.1203,0.13,0.0889,0.1103,0.1103,0.1102,0.1102,0.1101,0,-0.1059,-0.1119,-0.1205,-0.1262,-0.1271,-0.1289,-0.1118,-0.0929,-0.0569,-0.0232,0.0155,0.0714,0.1004,0.1193,0.1399,0.153,0.1545,0.1584,0.1582,0.1645,0.1295,0.1291,0.1555,0.1555,0.1555,0.1554,0.1554,0.1554,-0.1071,-0.1149,-0.1197,-0.1217,-0.1227,-0.1073,-0.0909,-0.0591,-0.0277,0.0331,0.0738,0.106,0.1323,0.1618,0.1825,0.1859,0.1996,0.196,0.2053,0.1778,0.1741,0.1706,0.1712,0.2059,0.206,0.24,0.2403,0.2406]}],[{"header":{"parameterUnit":"m.s-1","parameterCategory":2,"la1":30.2991,"la2":30.254,"lo1":-89.0895,"lo2":-89.0444,"dy":0.0017,"dx":0.0017,"nx":28,"ny":28,"refTime":"2024-07-20T03:00:00:Z","depth":"2","parameterNumber":2,"parameterNumberName":"U-component_of_CURRENTS"},"data":[0,0,0,0,0,0,0,0,0,0,0,0,0,0,0,0,0,0,0,0,0,0,0,0,0,0,0,0,0,0,0,0,0,0,0,0,0,0,0,0,0,0,0,0,0,0,0,0,0,0,0,0,0,0,0,0,0,0,-0.2392,-0.2393,0,-0.2432,-0.2432,-0.2432,-0.2435,-0.2435,-0.2435,-0.2435,-0.2441,-0.2442,-0.2442,0,0,0,0,0,0,0,0,0,0,0,0,0,-0.2309,-0.231,-0.2392,-0.2393,-0.2394,-0.2432,-0.2432,-0.2432,-0.2435,-0.2435,-0.2435,-0.2435,-0.2441,-0.2442,-0.2442,0,0,0,0,0,0,0,0,0,0,0,0,0,-0.2344,-0.2311,-0.2392,-0.2402,-0.2403,-0.2432,-0.2432,-0.2432,-0.2435,-0.2435,-0.2435,-0.2434,-0.2441,-0.2442,-0.2442,-0.2452,0,0,-0.2444,-0.2444,0,0,0,0,0,0,0,0,-0.2342,-0.2347,-0.24,-0.2401,-0.2403,-0.243,-0.2405,-0.2438,-0.2435,-0.2421,-0.2435,-0.2434,-0.2437,-0.2438,-0.2443,-0.2453,-0.2453,-0.2444,-0.2445,-0.2445,-0.2445,0,0,0,0,0,0,0,-0.234,-0.2345,-0.2406,-0.24,-0.2402,-0.24,-0.2405,-0.2412,-0.2427,-0.2422,-0.2423,-0.2431,-0.2437,-0.2442,-0.2443,-0.2453,-0.2444,-0.2445,-0.2445,-0.2445,-0.245,-0.245,0,0,0,0,0,0,-0.2341,-0.2343,-0.2404,-0.2407,-0.2374,-0.2402,-0.2407,-0.242,-0.2428,-0.243,-0.2431,-0.2431,-0.2441,-0.2442,-0.2443,-0.2451,-0.2445,-0.2445,-0.2446,-0.2451,-0.245,-0.245,0,0,0,0,0,0,-0.2339,-0.2346,-0.2403,-0.2377,-0.2385,-0.2404,-0.2418,-0.2421,-0.2429,-0.2436,-0.2437,-0.2437,-0.2441,-0.2442,-0.2449,-0.2451,-0.2446,-0.2446,-0.2451,-0.2451,-0.245,-0.247,0,0,0,0,0,0,-0.2337,-0.2345,-0.2352,-0.2378,-0.2386,-0.2421,-0.2419,-0.2422,-0.2435,-0.2435,-0.2441,-0.2442,-0.2441,-0.2448,-0.2449,-0.2452,-0.2447,-0.2451,-0.2451,-0.245,-0.2469,-0.247,-0.2471,0,0,0,0,0,-0.2333,-0.2345,-0.2352,-0.2359,-0.2396,-0.2422,-0.2426,-0.2436,-0.2436,-0.2441,-0.2443,-0.2442,-0.2446,-0.2448,-0.245,-0.2453,-0.2451,-0.2451,-0.245,-0.2469,-0.247,-0.2471,0,0,0,0,0,0,-0.231,-0.2348,-0.2355,-0.2377,-0.2399,-0.2423,-0.2428,-0.2439,-0.2446,-0.2443,-0.2446,-0.2447,-0.245,-0.2448,-0.2451,-0.2451,-0.2446,-0.2445,-0.2459,-0.246,-0.2461,-0.2463,-0.2447,0,0,0,0,0,-0.231,-0.2325,-0.2361,-0.2374,-0.2387,-0.2408,-0.2419,-0.243,-0.2442,-0.2445,-0.2449,-0.2448,-0.245,-0.2452,-0.2451,-0.2459,-0.2443,-0.2458,-0.2459,-0.246,-0.2462,-0.2448,-0.2448,-0.2449,-0.2449,-0.2449,0,0,-0.2304,-0.2324,-0.2334,-0.2369,-0.2383,-0.2411,-0.2413,-0.2431,-0.2449,-0.2444,-0.2458,-0.2453,-0.2451,-0.2455,-0.2456,-0.2455,-0.2447,-0.2459,-0.246,-0.2461,-0.2448,-0.2448,-0.2448,-0.2448,-0.2448,-0.2448,0,0,-0.2303,-0.2319,-0.2336,-0.2358,-0.2387,-0.2405,-0.2413,-0.2441,-0.2447,-0.2464,-0.2459,-0.2456,-0.2465,-0.2461,-0.2462,-0.2466,-0.245,-0.2462,-0.2473,-0.2461,-0.2461,-0.2461,-0.2424,-0.2421,-0.2465,-0.2465,-0.2465,0,-0.2295,-0.2324,-0.2343,-0.2368,-0.2387,-0.2406,-0.2433,-0.2446,-0.247,-0.2474,-0.2469,-0.247,-0.2468,-0.2472,-0.2471,-0.2469,-0.2451,-0.2473,-0.2462,-0.2462,-0.2462,-0.2424,-0.242,-0.2466,-0.2466,-0.2466,-0.2465,0,-0.2312,-0.2338,-0.2347,-0.2388,-0.241,-0.2431,-0.2462,-0.2475,-0.2483,-0.2494,-0.2496,-0.2487,-0.2489,-0.2483,-0.2482,-0.2477,-0.246,-0.2464,-0.2463,-0.2463,-0.2423,-0.2419,-0.2467,-0.2467,-0.2466,-0.2466,0,0,-0.2283,-0.235,-0.235,-0.2375,-0.2423,-0.2441,-0.2472,-0.2503,-0.2517,-0.2521,-0.253,-0.2524,-0.2514,-0.2513,-0.2502,-0.2488,-0.2463,-0.2477,-0.2476,-0.2445,-0.2417,-0.2313,-0.2298,-0.2469,-0.2469,-0.2469,-0.2384,0,-0.2289,-0.2338,-0.2373,-0.2414,-0.2442,-0.2476,-0.2504,-0.253,-0.2542,-0.2551,-0.2537,-0.2538,-0.2528,-0.2523,-0.2511,-0.2483,-0.2455,-0.2485,-0.2418,-0.2415,-0.2327,-0.2291,-0.2115,-0.2017,-0.2379,-0.2379,-0.2378,0,-0.2288,-0.2323,-0.2369,-0.2432,-0.2447,-0.2475,-0.2515,-0.2543,-0.2565,-0.2573,-0.2573,-0.2564,-0.2549,-0.2535,-0.2486,-0.2507,-0.2461,-0.243,-0.2426,-0.2321,-0.2303,-0.2078,-0.1995,-0.237,-0.2371,-0.2372,-0.2372,0,-0.2241,-0.2315,-0.2349,-0.237,-0.2446,-0.2467,-0.2503,-0.254,-0.2561,-0.2579,-0.2585,-0.2576,-0.2558,-0.2522,-0.2457,-0.2477,-0.2381,-0.2404,-0.226,-0.2251,-0.2083,-0.206,-0.2351,-0.2351,-0.2352,-0.2352,-0.2352,0,-0.2224,-0.2244,-0.2329,-0.2343,-0.2378,-0.2441,-0.2472,-0.2507,-0.2551,-0.2559,-0.2585,-0.257,-0.2555,-0.2501,-0.2452,-0.2325,-0.2376,-0.2243,-0.2219,-0.2081,-0.206,-0.2361,-0.2364,-0.2349,-0.2349,-0.235,-0.2351,0,-0.2147,-0.2212,-0.2247,-0.2329,-0.2355,-0.2369,-0.2451,-0.2469,-0.2526,-0.2534,-0.2539,-0.2559,-0.2477,-0.2427,-0.2347,-0.2296,-0.2203,-0.214,-0.1964,-0.192,-0.2085,-0.209,-0.1985,-0.1981,-0.1977,-0.1974,-0.1971,0,-0.2109,-0.2122,-0.2206,-0.2222,-0.2254,-0.2301,-0.2331,-0.2428,-0.2447,-0.2507,-0.2491,-0.2448,-0.2369,-0.2215,-0.2083,-0.1942,-0.2054,-0.1745,-0.1752,-0.2058,-0.2046,-0.2057,-0.2066,-0.1531,-0.1525,-0.152,-0.1516,0,-0.2014,-0.2044,-0.207,-0.211,-0.2145,-0.2182,-0.2232,-0.2254,-0.2349,-0.2374,-0.2368,-0.232,-0.2153,-0.1917,-0.1737,-0.165,-0.176,-0.164,-0.1988,-0.1657,-0.1624,-0.1615,-0.164,-0.1472,-0.1476,-0.148,-0.1482,-0.1484,-0.1916,-0.1911,-0.1946,-0.1963,-0.2005,-0.2008,-0.1993,-0.206,-0.2078,-0.2053,-0.2151,-0.2005,-0.1936,-0.1534,-0.1407,-0.1284,-0.1415,-0.1378,-0.1395,-0.1418,-0.1386,-0.135,-0.1138,-0.114,-0.1143,-0.1144,-0.1146,0,-0.1779,-0.1784,-0.1796,-0.1794,-0.1752,-0.1845,-0.1878,-0.1821,-0.1786,-0.1796,-0.1774,-0.1529,-0.133,-0.1236,-0.0957,-0.0912,-0.0927,-0.0893,-0.0926,-0.0968,-0.1006,-0.0958,-0.0594,-0.0592,-0.0591,-0.059,0,0,-0.1705,-0.1657,-0.1661,-0.1527,-0.1525,-0.1428,-0.1421,-0.1393,-0.137,-0.1273,-0.12,-0.127,-0.122,-0.0939,-0.085,-0.0675,-0.0828,-0.0632,-0.1068,-0.115,-0.1187,-0.1265,-0.1234,0,0,0,0,0]},{"header":{"parameterUnit":"m.s-1","parameterCategory":2,"la1":30.2991,"la2":30.254,"lo1":-89.0895,"lo2":-89.0444,"dy":0.0017,"dx":0.0017,"nx":28,"ny":28,"refTime":"2024-07-20T03:00:00:Z","depth":"2","parameterNumber":3,"parameterNumberName":"V-component_of_CURRENTS"},"data":[0,0,0,0,0,0,0,0,0,0,0,0,0,0,0,0,0,0,0,0,0,0,0,0,0,0,0,0,0,0,0,0,0,0,0,0,0,0,0,0,0,0,0,0,0,0,0,0,0,0,0,0,0,0,0,0,0,0,-0.0313,-0.0312,0,-0.0249,-0.0248,-0.0247,-0.0194,-0.0193,-0.0193,-0.0192,-0.0088,-0.0086,-0.0084,0,0,0,0,0,0,0,0,0,0,0,0,0,-0.0349,-0.0349,-0.0313,-0.0312,-0.0311,-0.0249,-0.0248,-0.0247,-0.0194,-0.0193,-0.0193,-0.0192,-0.0089,-0.0086,-0.0083,0,0,0,0,0,0,0,0,0,0,0,0,0,-0.0314,-0.0349,-0.0313,-0.0278,-0.0274,-0.0249,-0.0248,-0.0247,-0.0194,-0.0193,-0.0193,-0.0192,-0.009,-0.0086,-0.0083,-0.0077,0,0,-0.0072,-0.0071,0,0,0,0,0,0,0,0,-0.0316,-0.0312,-0.0284,-0.028,-0.0276,-0.0229,-0.0223,-0.0188,-0.0194,-0.0224,-0.0192,-0.0191,-0.0132,-0.0125,-0.0115,-0.0073,-0.0068,-0.0072,-0.007,-0.0069,-0.0068,0,0,0,0,0,0,0,-0.0318,-0.0315,-0.0287,-0.0283,-0.0278,-0.0252,-0.0246,-0.0216,-0.0182,-0.0221,-0.0217,-0.0211,-0.013,-0.0118,-0.0112,-0.0067,-0.0072,-0.0069,-0.0067,-0.0066,0.0023,0.0023,0,0,0,0,0,0,-0.033,-0.0317,-0.0289,-0.0285,-0.0295,-0.0252,-0.0245,-0.0244,-0.0183,-0.0174,-0.0212,-0.0209,-0.0125,-0.0116,-0.0108,-0.008,-0.0069,-0.0065,-0.0063,0.0022,0.0023,0.0023,0,0,0,0,0,0,-0.0332,-0.0329,-0.0292,-0.03,-0.0293,-0.0252,-0.0251,-0.0244,-0.0231,-0.0177,-0.0166,-0.0207,-0.0124,-0.0113,-0.0075,-0.0076,-0.0064,-0.0061,0.0022,0.0022,0.0023,-0.0036,0,0,0,0,0,0,-0.0333,-0.033,-0.0336,-0.0301,-0.0293,-0.0282,-0.0252,-0.0243,-0.0229,-0.0224,-0.0169,-0.0159,-0.0122,-0.008,-0.0072,-0.0071,-0.0058,0.0022,0.0022,0.0023,-0.0034,-0.0037,-0.004,0,0,0,0,0,-0.0335,-0.0348,-0.0337,-0.0333,-0.0302,-0.0283,-0.0277,-0.0244,-0.023,-0.0229,-0.0185,-0.0161,-0.0071,-0.0078,-0.0067,-0.0066,0.0021,0.0022,0.0023,-0.0033,-0.0037,-0.004,0,0,0,0,0,0,-0.0368,-0.0343,-0.033,-0.0335,-0.0313,-0.0274,-0.0273,-0.0251,-0.0217,-0.0212,-0.0158,-0.0145,-0.0114,-0.0081,-0.009,-0.0037,-0.002,-0.0018,-0.0066,-0.0069,-0.0072,-0.0083,-0.0055,0,0,0,0,0,-0.0379,-0.0382,-0.0351,-0.0356,-0.0348,-0.0312,-0.0301,-0.028,-0.0245,-0.023,-0.019,-0.0144,-0.0105,-0.008,-0.0045,-0.0017,0.0023,-0.0007,-0.0011,-0.0013,-0.0014,0.0046,0.0049,0.0025,0.0025,0.0025,0,0,-0.0393,-0.0381,-0.0382,-0.0363,-0.0344,-0.0339,-0.0304,-0.0293,-0.0283,-0.0224,-0.02,-0.0159,-0.0101,-0.0069,-0.0052,-0.0039,0.0014,-0.0013,-0.0016,-0.0015,0.0047,0.005,0.0052,0.0025,0.0025,0.0025,0,0,-0.0426,-0.0413,-0.0425,-0.0413,-0.0391,-0.0365,-0.0365,-0.033,-0.0308,-0.0281,-0.0233,-0.0188,-0.0137,-0.0087,-0.0057,-0.0053,-0.0009,-0.0046,-0.0064,-0.0006,-0.0003,-0.0001,0.0049,0.0056,-0.0042,-0.0042,-0.0042,0,-0.0445,-0.0455,-0.0426,-0.0435,-0.0427,-0.0381,-0.0389,-0.0361,-0.0317,-0.0294,-0.0282,-0.0189,-0.0143,-0.0086,-0.0082,-0.006,-0.0025,-0.0059,-0.0011,-0.0007,-0.0003,0.0047,0.0056,-0.0044,-0.0044,-0.0044,-0.0044,0,-0.0484,-0.0491,-0.0498,-0.0491,-0.0478,-0.048,-0.0437,-0.0418,-0.0386,-0.0349,-0.0296,-0.023,-0.017,-0.0149,-0.0114,-0.0064,-0.0047,-0.0028,-0.0006,-0.0005,0.0049,0.0059,-0.0048,-0.0047,-0.0047,-0.0046,0,0,-0.0531,-0.0527,-0.0531,-0.0534,-0.0509,-0.0501,-0.0483,-0.0444,-0.0422,-0.0375,-0.0339,-0.0265,-0.0225,-0.0187,-0.0133,-0.0079,-0.0022,-0.0049,-0.0044,-0.0008,0.0101,0.0134,0.0149,0.0001,0.0003,0.0004,0.0126,0,-0.057,-0.0604,-0.0583,-0.06,-0.0609,-0.0561,-0.0543,-0.05,-0.0452,-0.0406,-0.0326,-0.0278,-0.0239,-0.021,-0.015,-0.0053,0.0003,-0.0057,0.0102,0.0107,0.013,0.0162,0.0133,0.0241,0.0136,0.0138,0.0139,0,-0.0617,-0.0631,-0.0666,-0.0649,-0.0646,-0.0646,-0.0602,-0.0579,-0.0497,-0.0459,-0.0394,-0.0329,-0.024,-0.0213,-0.0051,-0.0094,-0.0005,0.0069,0.0076,0.0135,0.016,0.0226,0.0265,0.0157,0.0156,0.0154,0.0153,0,-0.0671,-0.0683,-0.0713,-0.0713,-0.0691,-0.0688,-0.0666,-0.06,-0.0573,-0.0494,-0.0458,-0.0351,-0.0284,-0.0172,-0.0017,-0.0035,0.0164,0.0162,0.0278,0.0281,0.0304,0.0306,0.0276,0.0276,0.0276,0.0275,0.0275,0,-0.0725,-0.0745,-0.0744,-0.0763,-0.0785,-0.0742,-0.0741,-0.07,-0.0631,-0.0586,-0.0493,-0.0421,-0.027,-0.0135,-0.0018,0.0171,0.0169,0.0285,0.0321,0.0283,0.0282,0.0244,0.0239,0.028,0.0279,0.0278,0.0277,0,-0.0785,-0.0786,-0.082,-0.0817,-0.082,-0.0837,-0.0811,-0.0796,-0.072,-0.0658,-0.0634,-0.0464,-0.0278,-0.0117,0.0094,0.0185,0.0348,0.0415,0.0356,0.0383,0.042,0.041,0.0544,0.0547,0.0549,0.055,0.0552,0,-0.0819,-0.0847,-0.088,-0.0911,-0.0918,-0.0933,-0.0937,-0.0867,-0.0833,-0.0668,-0.063,-0.0435,-0.0281,0.0035,0.0237,0.045,0.0439,0.0534,0.0499,0.0429,0.0451,0.0438,0.0426,0.0505,0.0506,0.0507,0.0507,0,-0.0879,-0.0895,-0.0926,-0.0999,-0.1026,-0.1041,-0.1026,-0.1013,-0.0896,-0.0825,-0.0641,-0.05,-0.0154,0.0101,0.0369,0.0481,0.0489,0.0556,0.0526,0.0436,0.0402,0.0419,0.0407,0.0514,0.0513,0.0513,0.0512,0.0512,-0.0919,-0.0967,-0.1015,-0.1075,-0.1109,-0.1121,-0.1128,-0.1073,-0.1016,-0.0842,-0.0707,-0.0458,-0.0179,0.0225,0.0428,0.0616,0.0602,0.0618,0.0613,0.0607,0.0575,0.0545,0.0679,0.0679,0.0679,0.0679,0.068,0,-0.0963,-0.1012,-0.1083,-0.1142,-0.1174,-0.1178,-0.116,-0.1121,-0.1047,-0.0838,-0.0681,-0.0396,-0.0107,0.0213,0.0534,0.0691,0.0658,0.0697,0.0624,0.0616,0.061,0.0575,0.0681,0.0681,0.0682,0.0682,0,0,-0.0989,-0.1064,-0.1101,-0.1169,-0.1208,-0.1227,-0.1217,-0.1138,-0.0988,-0.0782,-0.0579,-0.0403,-0.0027,0.0171,0.0381,0.057,0.0545,0.057,0.0551,0.0432,0.0424,0.0545,0.0481,0,0,0,0,0]}],[{"header":{"parameterUnit":"m.s-1","parameterCategory":2,"la1":30.2991,"la2":30.254,"lo1":-89.0895,"lo2":-89.0444,"dy":0.0017,"dx":0.0017,"nx":28,"ny":28,"refTime":"2024-07-20T03:00:00:Z","depth":"4","parameterNumber":2,"parameterNumberName":"U-component_of_CURRENTS"},"data":[0,0,0,0,0,0,0,0,0,0,0,0,0,0,0,0,0,0,0,0,0,0,0,0,0,0,0,0,0,0,0,0,0,0,0,0,0,0,0,0,0,0,0,0,0,0,0,0,0,0,0,0,0,0,0,0,0,0,-0.1768,-0.1769,0,-0.1852,-0.1853,-0.1853,-0.1915,-0.1916,-0.1917,-0.1917,-0.1954,-0.1954,-0.1954,0,0,0,0,0,0,0,0,0,0,0,0,0,-0.1656,-0.1658,-0.1768,-0.1769,-0.177,-0.1852,-0.1853,-0.1854,-0.1915,-0.1916,-0.1917,-0.1917,-0.1954,-0.1954,-0.1954,0,0,0,0,0,0,0,0,0,0,0,0,0,-0.1718,-0.1659,-0.1767,-0.1811,-0.1816,-0.1851,-0.1853,-0.1854,-0.1915,-0.1916,-0.1917,-0.1918,-0.1953,-0.1954,-0.1954,-0.1938,0,0,-0.1956,-0.1956,0,0,0,0,0,0,0,0,-0.1714,-0.1722,-0.1804,-0.1808,-0.1814,-0.1875,-0.1827,-0.188,-0.1915,-0.1876,-0.1917,-0.1918,-0.1923,-0.1926,-0.1939,-0.194,-0.1942,-0.1956,-0.1957,-0.1957,-0.1957,0,0,0,0,0,0,0,-0.171,-0.1718,-0.18,-0.1805,-0.1811,-0.1826,-0.1835,-0.1837,-0.1891,-0.188,-0.1885,-0.1896,-0.1926,-0.1938,-0.194,-0.1942,-0.1956,-0.1957,-0.1957,-0.1957,-0.2,-0.2001,0,0,0,0,0,0,-0.1701,-0.1714,-0.1797,-0.1802,-0.1767,-0.1827,-0.1838,-0.1853,-0.1892,-0.19,-0.1895,-0.1898,-0.1937,-0.1939,-0.1941,-0.1995,-0.1957,-0.1957,-0.1958,-0.2,-0.2001,-0.2001,0,0,0,0,0,0,-0.1699,-0.1708,-0.1794,-0.1761,-0.1773,-0.1828,-0.1845,-0.1855,-0.19,-0.1905,-0.1911,-0.1934,-0.1938,-0.1941,-0.1974,-0.1994,-0.1958,-0.1958,-0.1999,-0.2,-0.2001,-0.2056,0,0,0,0,0,0,-0.1695,-0.1707,-0.173,-0.176,-0.1775,-0.1832,-0.1845,-0.1856,-0.1904,-0.191,-0.1939,-0.1942,-0.1939,-0.1973,-0.1974,-0.1994,-0.1958,-0.1998,-0.1999,-0.2001,-0.2053,-0.2059,-0.2063,0,0,0,0,0,-0.1691,-0.1714,-0.173,-0.1741,-0.18,-0.1833,-0.1842,-0.1883,-0.1905,-0.1927,-0.1952,-0.1943,-0.1983,-0.1975,-0.1976,-0.1996,-0.1997,-0.1999,-0.2001,-0.205,-0.2057,-0.2063,0,0,0,0,0,0,-0.168,-0.1723,-0.1742,-0.1779,-0.1812,-0.1845,-0.1873,-0.19,-0.1938,-0.1952,-0.1958,-0.1962,-0.1997,-0.1988,-0.1978,-0.2012,-0.1986,-0.1989,-0.2024,-0.203,-0.2036,-0.2025,-0.1959,0,0,0,0,0,-0.1686,-0.1715,-0.1754,-0.1785,-0.1804,-0.1844,-0.187,-0.1898,-0.1929,-0.195,-0.197,-0.1987,-0.1999,-0.2011,-0.2019,-0.2038,-0.2012,-0.205,-0.2055,-0.206,-0.2051,-0.2044,-0.2048,-0.2008,-0.2008,-0.2007,0,0,-0.1692,-0.1718,-0.1738,-0.1785,-0.1815,-0.1849,-0.1863,-0.1908,-0.1941,-0.1943,-0.1999,-0.201,-0.201,-0.2036,-0.205,-0.2036,-0.2056,-0.2062,-0.2066,-0.2055,-0.2046,-0.205,-0.2053,-0.2009,-0.2009,-0.2008,0,0,-0.1705,-0.1741,-0.1769,-0.1798,-0.1848,-0.1871,-0.189,-0.194,-0.197,-0.2016,-0.2025,-0.205,-0.2077,-0.2078,-0.208,-0.2116,-0.2087,-0.2124,-0.2142,-0.2136,-0.2139,-0.2141,-0.2106,-0.2105,-0.2124,-0.2125,-0.2125,0,-0.1715,-0.1752,-0.1782,-0.1814,-0.1842,-0.1884,-0.1918,-0.1951,-0.2007,-0.2025,-0.2042,-0.2085,-0.2092,-0.2108,-0.2126,-0.2128,-0.2111,-0.212,-0.2142,-0.2144,-0.2146,-0.2109,-0.2107,-0.2127,-0.2127,-0.2127,-0.2127,0,-0.1739,-0.1782,-0.18,-0.1853,-0.1885,-0.1922,-0.1965,-0.2005,-0.2046,-0.2072,-0.2114,-0.2128,-0.2147,-0.2158,-0.2156,-0.2171,-0.2151,-0.2153,-0.2126,-0.2153,-0.2112,-0.2109,-0.2132,-0.213,-0.213,-0.2129,0,0,-0.1721,-0.1803,-0.1812,-0.1843,-0.191,-0.1934,-0.1988,-0.2035,-0.2067,-0.2118,-0.2148,-0.2179,-0.2189,-0.219,-0.2193,-0.2191,-0.2191,-0.2182,-0.218,-0.2145,-0.216,-0.2009,-0.199,-0.2204,-0.2204,-0.2204,-0.2124,0,-0.1733,-0.1794,-0.1834,-0.1894,-0.1926,-0.1977,-0.2019,-0.2066,-0.2107,-0.2145,-0.2163,-0.2193,-0.22,-0.2215,-0.2217,-0.2203,-0.2186,-0.221,-0.2139,-0.2136,-0.1997,-0.1983,-0.2204,-0.2121,-0.2121,-0.212,-0.212,0,-0.1736,-0.1777,-0.1839,-0.1911,-0.193,-0.1973,-0.2036,-0.2078,-0.2132,-0.2165,-0.2197,-0.2212,-0.2225,-0.2226,-0.2203,-0.2223,-0.2191,-0.2172,-0.2169,-0.2003,-0.1978,-0.209,-0.2113,-0.2114,-0.2114,-0.2115,-0.2115,0,-0.1687,-0.1775,-0.1823,-0.1851,-0.1939,-0.1976,-0.2022,-0.2084,-0.2119,-0.2174,-0.2199,-0.222,-0.2229,-0.2212,-0.2175,-0.2198,-0.2128,-0.2152,-0.1976,-0.1965,-0.2104,-0.2102,-0.2115,-0.2116,-0.2116,-0.2116,-0.2116,0,-0.1663,-0.1704,-0.181,-0.1835,-0.1887,-0.1955,-0.2009,-0.2059,-0.2123,-0.2131,-0.2202,-0.2192,-0.223,-0.2196,-0.2166,-0.204,-0.2116,-0.1956,-0.1929,-0.2128,-0.213,-0.2101,-0.21,-0.2113,-0.2114,-0.2114,-0.2115,0,-0.1592,-0.167,-0.173,-0.1834,-0.1868,-0.1901,-0.2003,-0.2025,-0.2106,-0.2116,-0.2133,-0.2178,-0.2115,-0.211,-0.2059,-0.1999,-0.1914,-0.1848,-0.203,-0.2019,-0.1761,-0.1764,-0.1648,-0.1642,-0.1637,-0.1632,-0.1629,0,-0.1557,-0.1586,-0.171,-0.1741,-0.1793,-0.1862,-0.1896,-0.2001,-0.2008,-0.2067,-0.2038,-0.203,-0.2024,-0.1826,-0.1853,-0.1756,-0.174,-0.1699,-0.1754,-0.1724,-0.1711,-0.1723,-0.1733,-0.162,-0.1619,-0.1618,-0.1616,0,-0.1477,-0.1541,-0.1586,-0.1651,-0.1704,-0.1746,-0.1794,-0.1792,-0.1866,-0.1975,-0.1879,-0.1832,-0.1748,-0.1698,-0.1624,-0.1569,-0.1736,-0.1645,-0.1657,-0.1708,-0.169,-0.1684,-0.17,-0.1598,-0.1601,-0.1603,-0.1604,0,-0.1413,-0.1427,-0.1493,-0.1526,-0.1586,-0.1566,-0.163,-0.1613,-0.1641,-0.171,-0.1666,-0.1655,-0.1704,-0.1595,-0.1528,-0.1455,-0.1447,-0.1428,-0.1451,-0.1472,-0.1452,-0.1406,-0.1179,0,0,0,0,0,-0.1335,-0.1326,-0.1354,-0.1368,-0.1414,-0.1435,-0.1515,-0.1576,-0.1657,-0.1539,-0.1597,-0.1503,-0.1409,-0.1424,-0.1306,-0.1443,-0.1451,-0.1303,-0.1443,-0.1499,-0.1519,-0.1513,0,0,0,0,0,0,-0.1279,-0.1306,-0.1302,-0.1206,-0.1178,-0.1197,-0.1239,-0.1308,-0.1256,-0.1357,-0.1309,-0.1404,-0.133,-0.142,-0.1263,-0.1265,-0.1323,-0.1322,-0.1318,-0.1487,-0.1506,-0.1522,-0.1523,0,0,0,0,0]},{"header":{"parameterUnit":"m.s-1","parameterCategory":2,"la1":30.2991,"la2":30.254,"lo1":-89.0895,"lo2":-89.0444,"dy":0.0017,"dx":0.0017,"nx":28,"ny":28,"refTime":"2024-07-20T03:00:00:Z","depth":"4","parameterNumber":3,"parameterNumberName":"V-component_of_CURRENTS"},"data":[0,0,0,0,0,0,0,0,0,0,0,0,0,0,0,0,0,0,0,0,0,0,0,0,0,0,0,0,0,0,0,0,0,0,0,0,0,0,0,0,0,0,0,0,0,0,0,0,0,0,0,0,0,0,0,0,0,0,-0.0225,-0.0225,0,-0.0184,-0.0184,-0.0183,-0.0148,-0.0148,-0.0147,-0.0147,-0.009,-0.0089,-0.0088,0,0,0,0,0,0,0,0,0,0,0,0,0,-0.0245,-0.0245,-0.0225,-0.0225,-0.0224,-0.0184,-0.0184,-0.0183,-0.0148,-0.0148,-0.0147,-0.0147,-0.0091,-0.0089,-0.0088,0,0,0,0,0,0,0,0,0,0,0,0,0,-0.0223,-0.0245,-0.0225,-0.0203,-0.02,-0.0184,-0.0184,-0.0183,-0.0148,-0.0148,-0.0147,-0.0147,-0.0091,-0.0089,-0.0088,-0.0086,0,0,-0.0082,-0.0081,0,0,0,0,0,0,0,0,-0.0225,-0.0223,-0.0206,-0.0204,-0.0201,-0.0171,-0.017,-0.015,-0.0148,-0.0167,-0.0147,-0.0146,-0.0117,-0.0113,-0.0105,-0.0084,-0.0081,-0.0082,-0.0081,-0.008,-0.0079,0,0,0,0,0,0,0,-0.0226,-0.0224,-0.0208,-0.0206,-0.0203,-0.0185,-0.0181,-0.0166,-0.0145,-0.0166,-0.0163,-0.016,-0.0115,-0.0107,-0.0104,-0.0081,-0.0082,-0.008,-0.0079,-0.0078,-0.0032,-0.0032,0,0,0,0,0,0,-0.0235,-0.0226,-0.021,-0.0207,-0.0213,-0.0185,-0.0181,-0.0181,-0.0145,-0.0139,-0.016,-0.0158,-0.0111,-0.0106,-0.0102,-0.008,-0.008,-0.0078,-0.0077,-0.0032,-0.0032,-0.0032,0,0,0,0,0,0,-0.0235,-0.0234,-0.0211,-0.0216,-0.0212,-0.0185,-0.0185,-0.018,-0.0174,-0.0141,-0.0135,-0.0159,-0.011,-0.0104,-0.0082,-0.0078,-0.0077,-0.0076,-0.0032,-0.0032,-0.0032,-0.0048,0,0,0,0,0,0,-0.0236,-0.0234,-0.0241,-0.0216,-0.0212,-0.0207,-0.0186,-0.018,-0.0173,-0.017,-0.0138,-0.0132,-0.0109,-0.0085,-0.008,-0.0075,-0.0074,-0.0032,-0.0032,-0.0032,-0.0047,-0.0048,-0.0049,0,0,0,0,0,-0.0237,-0.0248,-0.0242,-0.024,-0.0221,-0.0207,-0.0203,-0.0182,-0.0174,-0.0174,-0.0146,-0.0133,-0.0079,-0.0083,-0.0078,-0.0073,-0.0032,-0.0032,-0.0032,-0.0047,-0.0048,-0.0049,0,0,0,0,0,0,-0.026,-0.0244,-0.0237,-0.0243,-0.0229,-0.0202,-0.0203,-0.0188,-0.0167,-0.0165,-0.0132,-0.0124,-0.0104,-0.0088,-0.0093,-0.0058,-0.0054,-0.0053,-0.0068,-0.0068,-0.0069,-0.0073,-0.0073,0,0,0,0,0,-0.0269,-0.0274,-0.0253,-0.0259,-0.0254,-0.0231,-0.0224,-0.021,-0.0188,-0.0178,-0.0154,-0.0127,-0.0099,-0.0084,-0.0063,-0.0045,-0.0018,-0.0038,-0.0039,-0.004,-0.0039,0.0017,0.0022,-0.003,-0.003,-0.003,0,0,-0.028,-0.0273,-0.0276,-0.0265,-0.0253,-0.0247,-0.0226,-0.0221,-0.021,-0.0176,-0.0159,-0.0133,-0.0096,-0.0072,-0.0062,-0.0057,-0.0013,-0.0039,-0.004,-0.0039,0.0018,0.0023,0.0028,-0.003,-0.003,-0.003,0,0,-0.0301,-0.0298,-0.0307,-0.0299,-0.0286,-0.0268,-0.0269,-0.0246,-0.023,-0.0214,-0.0179,-0.0145,-0.012,-0.0076,-0.0054,-0.0047,-0.0022,-0.005,-0.005,0.0005,0.001,0.0014,0.0045,0.0052,-0.0045,-0.0045,-0.0045,0,-0.0316,-0.0321,-0.0307,-0.0311,-0.0304,-0.0279,-0.028,-0.0262,-0.0233,-0.0213,-0.0214,-0.0146,-0.0116,-0.0061,-0.0056,-0.0046,-0.0024,-0.005,0.0005,0.001,0.0015,0.0045,0.0054,-0.0045,-0.0045,-0.0045,-0.0045,0,-0.0337,-0.0342,-0.0348,-0.0342,-0.0332,-0.0332,-0.0303,-0.0291,-0.0273,-0.0245,-0.0202,-0.0157,-0.0111,-0.0096,-0.0074,-0.002,-0.0021,-0.0006,0.0007,0.0019,0.005,0.0059,-0.0046,-0.0046,-0.0046,-0.0046,0,0,-0.0367,-0.0363,-0.0367,-0.0365,-0.0348,-0.0342,-0.0324,-0.0291,-0.0272,-0.0242,-0.0208,-0.015,-0.0123,-0.0096,-0.0058,-0.0009,0.0046,0.0002,0.0005,0.0032,0.0147,0.0109,0.0116,0.0068,0.007,0.0071,0.015,0,-0.0387,-0.0404,-0.039,-0.0395,-0.0396,-0.0365,-0.0348,-0.0315,-0.0283,-0.0248,-0.0185,-0.0149,-0.0122,-0.0103,-0.0047,0.0019,0.0071,0.0022,0.0131,0.0134,0.0099,0.0126,0.0077,0.0157,0.0159,0.0161,0.0162,0,-0.0413,-0.0418,-0.0434,-0.0414,-0.0411,-0.0411,-0.0374,-0.0355,-0.0293,-0.0267,-0.0212,-0.017,-0.0094,-0.008,0.0048,0.0012,0.0078,0.0129,0.0134,0.0112,0.0114,0.0145,0.0179,0.0178,0.0177,0.0176,0.0174,0,-0.0444,-0.0444,-0.0459,-0.0458,-0.0436,-0.0433,-0.0416,-0.0366,-0.0349,-0.0283,-0.0267,-0.0169,-0.013,-0.0032,0.0067,0.0061,0.0199,0.021,0.0243,0.024,0.0257,0.0252,0.0312,0.0312,0.0312,0.0311,0.0311,0,-0.0469,-0.0482,-0.0481,-0.0493,-0.0506,-0.0469,-0.0471,-0.0437,-0.039,-0.0373,-0.0286,-0.0252,-0.0117,-0.0027,0.0067,0.0174,0.0206,0.0246,0.0264,0.0246,0.0238,0.0263,0.0257,0.0314,0.0314,0.0313,0.0313,0,-0.0508,-0.0507,-0.0531,-0.0526,-0.053,-0.0545,-0.0535,-0.0528,-0.0472,-0.0451,-0.0435,-0.031,-0.0192,-0.0061,0.0103,0.0164,0.0276,0.0312,0.0267,0.028,0.028,0.0271,0.0354,0.0354,0.0353,0.0353,0.0352,0,-0.0528,-0.0546,-0.058,-0.0611,-0.062,-0.0635,-0.0646,-0.0591,-0.0578,-0.049,-0.0477,-0.0355,-0.0269,-0.0067,0.0079,0.0256,0.0281,0.033,0.0321,0.0278,0.0288,0.028,0.0272,0.0352,0.0352,0.0351,0.0351,0,-0.0566,-0.0592,-0.0617,-0.0687,-0.072,-0.0739,-0.0741,-0.0735,-0.0664,-0.062,-0.0519,-0.0398,-0.0259,-0.0084,0.0054,0.0183,0.029,0.0326,0.0328,0.032,0.0276,0.0284,0.0277,0.035,0.035,0.035,0.035,0,-0.0606,-0.0646,-0.0696,-0.0748,-0.0798,-0.0818,-0.0811,-0.0774,-0.0741,-0.063,-0.06,-0.0428,-0.0317,-0.012,0.0008,0.0127,0.0158,0.0183,0.0193,0.0196,0.0124,0.0044,0.0068,0,0,0,0,0,-0.0635,-0.0685,-0.0748,-0.0802,-0.085,-0.0866,-0.0859,-0.0833,-0.0769,-0.0716,-0.0652,-0.0521,-0.0307,-0.019,-0.0079,-0.0004,0.0172,0.0127,0.0203,0.0341,0.0343,0.0281,0,0,0,0,0,0,-0.066,-0.0729,-0.0757,-0.0828,-0.0869,-0.0905,-0.0899,-0.0855,-0.0801,-0.0728,-0.0605,-0.0522,-0.0302,-0.0382,-0.0088,-0.0046,0.0011,0.0242,0.0244,0.034,0.0342,0.0343,0.0281,0,0,0,0,0]}]]